Flag for Germany Weather past 2 weeks in Viersen, North Rhine-Westphalia, Germany

Now
64 °F

Clear.


Feels Like: 64 °F
Forecast: 59 / 75 °F
Wind: No wind

Location: Monchengladbach Airport

Current Time: Sep 16, 2014 at 9:49:50 AM

Latest Report: Sep 16, 2014 at 9:20 AM


Visibility: 5 mi

Pressure: 30.01 "Hg

Humidity: 94%

Dew point: 63 °F

Location of ViersenLocation

Historic Weather in Viersen — Graph

°F

Viersen temperature yesterday

Maximum temperature yesterday: 72 °F (at 2:50 PM)
Minimum temperature yesterday: 50 °F (at 6:50 AM)
Average temperature yesterday: 65 °F

Past Weeks' High & Low Weather Summary

 TemperatureHumidityPressure
High77 °F (Sep 5, 4:50 PM)100% (Sep 1, 8:20 AM)30.24 "Hg (Sep 1, 8:20 AM)
Low48 °F (Sep 2, 7:20 AM)52% (Sep 11, 4:50 PM)29.89 "Hg (Sep 6, 3:20 PM)
Average64 °F75%30.08 "Hg
* Reported Sep 1 8:20 AM — Sep 16 8:20 AM, Viersen, Weather by CustomWeather, © 2014

Note: Actual official high and low records may vary slightly from our data, if they occured in-between our weather recording intervals... More about our weather records

Advertising

Viersen weather history for previous 24 hours

 ConditionsComfort  
Time TempWeatherWind HumidityBarometerVisibility
8:20 AM
Sep 16
59 °FClear.No wind100%29.98 "Hg4 mi
7:50 AM57 °FFog.2 mph100%29.98 "Hg3 mi
7:50 PM
Sep 15
66 °FClear.5 mph83%29.98 "Hg10 mi
7:20 PM66 °FPassing clouds.3 mph88%29.98 "HgN/A
6:50 PM70 °FPassing clouds.3 mph73%29.98 "HgN/A
6:20 PM70 °FPassing clouds.5 mph73%29.98 "HgN/A
5:50 PM72 °FClear.5 mph65%29.98 "Hg10 mi
5:20 PM72 °FPassing clouds.6 mph61%29.98 "HgN/A
4:50 PM72 °FPassing clouds.7 mph61%29.98 "HgN/A
4:20 PM72 °FPassing clouds.6 mph61%29.98 "HgN/A
3:50 PM72 °FPassing clouds.6 mph61%29.98 "HgN/A
3:20 PM72 °FPassing clouds.6 mph65%30.01 "HgN/A
2:50 PM72 °FPassing clouds.6 mph65%30.01 "HgN/A
2:20 PM70 °FClear.5 mph64%30.01 "Hg10 mi
1:50 PM70 °FClear.3 mph69%30.01 "Hg10 mi
1:20 PM70 °FClear.3 mph69%30.04 "Hg10 mi
12:50 PM68 °FPassing clouds.2 mph69%30.04 "HgN/A
12:20 PM66 °FPassing clouds.3 mph73%30.04 "HgN/A
11:50 AM64 °FPartly sunny.3 mph73%30.04 "HgN/A
11:20 AM64 °FScattered clouds.3 mph78%30.04 "Hg5 mi
10:50 AM64 °FClear.2 mph78%30.04 "Hg5 mi
10:20 AM63 °FClear.3 mph83%30.04 "Hg4 mi
9:50 AM63 °FClear.2 mph83%30.04 "Hg4 mi
9:20 AM61 °FClear.2 mph88%30.04 "Hg4 mi
Weather by CustomWeather, © 2014

See weather overviewHow to use our weather pages